{"data":{"norad_id":67617,"intl_designator":"2026-020A","name":"STARLINK-36548","alt_names":[],"object_type":"PAYLOAD","status":"ACTIVE","operator":null,"country":"US","launch_date":"2026-01-30","launch_site_code":"AFETR","launch_vehicle":null,"mission":null,"orbit_class":"UNKNOWN","rcs_meters":null,"size_class":null,"mass_kg":null,"dimensions":null,"purposes":["comms"],"wikipedia_slug":null,"has_3d_model":false,"image_url":null,"decayed_at":null,"tle_current":{"epoch":"2026-05-25T03:35:15.021024Z","epoch_age_seconds":58962,"freshness":"FRESH","line1":"1 67617U 26020A   26145.14947941  .00026376  00000+0  96430-3 0  9992","line2":"2 67617  43.0003  68.2890 0001186 267.5878  92.4838 15.27589765 17806","mean_motion":15.27589765,"eccentricity":0.0001186,"inclination_deg":43.0003,"raan_deg":68.289,"arg_perigee_deg":267.5878,"mean_anomaly_deg":92.4838,"bstar":0.0009643,"rev_number":1780,"period_min":94.266146120716,"perigee_km":482.20612306932,"apogee_km":483.83358947563,"semimajor_km":6861.1568562725,"source":"CELESTRAK","updated_at":"2026-05-25T13:38:21.648753Z"}}}